Brightest
NORAD ID: 21819
Int'l Code: 1991-086A
Perigee: 442.6 km
Apogee: 2,922.6 km
Inclination: 82.6 °
Period: 119.9 minutes
Semi major axis: 8053 km
Launch date: December 18, 1991
Source: Commonwealth of Independent States (former USSR) (CIS)
Two Line Element Set (TLE):
1 21819U 91086A 13138.81542514 .00001278 00000-0 24895-3 0 430
2 21819 082.5599 237.1653 1539635 011.3028 351.8817 12.01206244933049
Source:
NASA's NSSDC Master Catalog entry for INTERCOSMOS 25